Regional Weather Roundup
Issued by NWS

Home | Current Version | Previous Version | Graphics & Text | Print | Product List | Glossary On
Versions: 1 2 3 4 5 6 7 8 9 10 11 12 13 14 15 16 17 18 19 20 21 22 23 24 25 26 27 28 29 30 31 32 33 34 35 36 37 38 39 40 41 42 43 44 45 46 47 48 49 50
000
ASUS45 KPSR 041010
RWRAZ

ARIZONA HOURLY REGIONAL WEATHER ROUNDUP
NATIONAL WEATHER SERVICE PHOENIX AZ
300 AM MST WED MAY 04 2016

NOTE: FAIR INDICATES FEW OR NO CLOUDS BELOW 12,000 FEET WITH NO
SIGNIFICANT WEATHER AND/OR OBSTRUCTIONS TO VISIBILITY.

AZZ001>003-036-041100-
NORTHWEST ARIZONA

CITY           SKY/WX    TMP DP  RH WIND       PRES   REMARKS
BULLHEAD CITY  CLEAR     73  37  27 CALM      29.88S
KINGMAN        CLEAR     65  33  30 SE13      30.01S
$$

AZZ004>008-015-016-018-041100-
NORTH CENTRAL ARIZONA

CITY           SKY/WX    TMP DP  RH WIND       PRES   REMARKS
GRAND CANYON   PTCLDY    40  31  70 CALM      30.24S
WILLIAMS       CLEAR     39  30  70 S10       30.29S WCI  32
PRESCOTT       CLEAR     50  35  56 S8        30.12S
FLAGSTAFF      CLEAR     35  31  85 E3        30.24F
PAYSON         CLEAR     61  27  27 S3        30.15R
PAGE           PTCLDY    55  34  45 CALM      30.14R
$$

AZZ009>014-017-041100-
NORTHEAST ARIZONA

CITY           SKY/WX    TMP DP  RH WIND       PRES   REMARKS
WINSLOW        PTCLDY    45  41  86 S6        30.16F
SAINT JOHNS    CLEAR     49  30  48 E8        30.21S
WINDOW ROCK    CLEAR     37  31  78 CALM      30.30S
SHOW LOW       CLEAR     50  27  40 SE8       30.23R
$$

AZZ023-041100-
GREATER PHOENIX AREA

CITY           SKY/WX    TMP DP  RH WIND       PRES   REMARKS
PHOENIX        CLEAR     74  35  24 E3        29.86S
BUCKEYE        CLEAR     64  27  24 N7        29.88S
LUKE AFB       CLEAR     66  40  38 N8        29.86S
DEER VALLEY    CLEAR     72  33  24 CALM      29.89R
SCOTTSDALE     CLEAR     72  38  29 CALM      29.90R
MESA-GATEWAY   CLEAR     63  36  36 CALM      29.90R
$$

AZZ027-028-041100-
SOUTHWEST MARICOPA COUNTY AND PINAL COUNTY

CITY           SKY/WX    TMP DP  RH WIND       PRES   REMARKS
CASA GRANDE    CLEAR    N/A N/A N/A MISG        N/A
GILA BEND      FAIR      67  27  21 E7        29.85S
$$

AZZ503-504-507>509-041100-
SOUTHEAST ARIZONA

CITY           SKY/WX    TMP DP  RH WIND       PRES   REMARKS
TUCSON         CLEAR     63  25  23 S6        29.98S
DAVIS-MONTHAN  CLEAR     70  28  21 S6        29.96S
NOGALES        CLEAR     55  26  32 E3        30.03F
SIERRA VISTA   CLEAR     66  25  21 S12       30.10F
DOUGLAS        CLEAR     69  26  20 E17G23    30.08R
SAFFORD        CLEAR     63  26  24 E9        30.06R
$$

AZZ020-021-025-026-031-041100-
SOUTHWEST ARIZONA

CITY           SKY/WX    TMP DP  RH WIND       PRES   REMARKS
YUMA           CLEAR     71  41  33 CALM      29.81F
$$

CAZ031-033-041-043-047-048-061-041100-
SOUTHERN CALIFORNIA

CITY           SKY/WX    TMP DP  RH WIND       PRES   REMARKS
DOWNTOWN L.A.  MOCLDY    57  54  89 CALM      29.94F
L.A. AIRPORT   MOCLDY    57  54  89 W3        29.95F
SAN DIEGO      CLOUDY    62  54  74 W5        29.96F
BURBANK        CLEAR     58  53  84 E3        29.94S
ONTARIO        PTCLDY    58  53  84 W6        29.94F
RIVERSIDE      CLEAR     59  53  80 VRB3      29.95S
PALM SPRINGS   CLEAR     75  39  27 N12       29.85F
EL CENTRO NAS  CLEAR    N/A N/A N/A NW3       29.82F
IMPERIAL       CLEAR     70  41  34 W6        29.80F
BLYTHE         CLEAR     66  23  19 N6        29.83F
NEEDLES        CLEAR     72  39  30 SW7       29.86F
$$

NVZ020-UTZ003-041100-
SOUTHERN NEVADA-UTAH

CITY           SKY/WX    TMP DP  RH WIND       PRES   REMARKS
LAS VEGAS      CLEAR     68  39  34 W5        29.91F
SALT LAKE CITY PTCLDY    54  36  50 S10       30.13F
$$

NMZ009-TXZ055-041100-
NEW MEXICO-WEST TEXAS

CITY           SKY/WX    TMP DP  RH WIND       PRES   REMARKS
ALBUQUERQUE    CLEAR     57  28  33 NE7       30.28R
EL PASO        CLEAR     62  33  33 NE3       30.18S
$$


........................KEY........................
SKY/WX - SKY CONDITION/WEATHER
TMP    - TEMPERATURE IN FAHRENHEIT
DP     - DEW POINT IN FAHRENHEIT
RH     - RELATIVE HUMIDITY IN PERCENT
WIND   - DIRECTION AND SPEED IN MILES PER HOUR (MPH)
VRB    - VARIABLE WIND DIRECTION
PRES   - MEAN SEA LEVEL PRESSURE IN INCHES OF MERCURY
         F - FALLING PRESSURE   R - RISING PRESSURE
         S - STEADY PRESSURE
VSB    - VISIBILITY IN MILES
HX     - HEAT INDEX IN FAHRENHEIT
WCI    - WIND CHILL INDEX IN FAHRENHEIT
TC     - TEMPERATURE IN CELSIUS WHICH IS ALSO KNOWN AS
         TEMPERATURE IN CENTIGRADE
AFB    - AIR FORCE BASE
         LUKE AFB IS LUKE AIR FORCE BASE
         DAVIS-MONTHAN IS DAVIS-MONTHAN AIR FORCE BASE
NAS    - NAVAL AIR STATION
         EL CENTRO NAS IS EL CENTRO NAVAL AIR STATION
N/A    - NOT AVAILABLE




USA.gov is the U.S. government's official web portal to all federal, state and local government web resources and services.